Dubuque, IA

8:39 AM CDT on April 28, 2017 (GMT -0500)
Dubuque Regional

Weather History for KDBQ - December, 2013

Change the Weather History Date:

Monday, December 2, 2013

  Actual Average Record
Temperature  
Mean Temperature 32 °F 28 °F  
Max Temperature 37 °F 35 °F 62 °F (1962)
Min Temperature 27 °F 20 °F -9 °F (1886)
Degree Days  
Heating Degree Days 33 37  
Month to date heating degree days 65 74  
Since 1 July heating degree days 1664 1574  
Cooling Degree Days 0 0  
Month to date cooling degree days 0 0  
Year to date cooling degree days 640 643  
Moisture  
Dew Point 31 °F    
Average Humidity 88    
Maximum Humidity 100    
Minimum Humidity 76    
Precipitation  
Precipitation 0.03 in 0.07 in 2.00 in (1982)
Month to date precipitation 0.03 0.15  
Year to date precipitation 36.84 34.60  
Snow  
Snow 0.00 in 0.40 in - ()
Month to date snowfall 0.0 0.7  
Since 1 July snowfall 3.9 3.5  
Snow Depth 0.00 in    
Sea Level Pressure  
Sea Level Pressure 29.78 in    
Wind  
Wind Speed 10 mph (SE)    
Max Wind Speed 18 mph    
Max Gust Speed 24 mph    
Visibility 4 miles    
Events      
T = Trace of Precipitation, MM = Missing Value Source: NWS Daily Summary

Daily Weather History Graph

Daily Weather History Graph

Search for Another Location

Airport or City:

Trip Planner

Search our weather history database for the weather conditions in past years. The results will help you decide how hot, cold, wet, or windy it might be!

Date:

Astronomy

Dec. 02, 2013 Rise Set
Actual Time 7:13 AM CST 4:30 PM CST
Civil Twilight 6:42 AM CST 5:02 PM CST
Nautical Twilight 6:07 AM CST 5:37 PM CST
Astronomical Twilight 5:33 AM CST 6:11 PM CST
Moon 6:38 AM CST (12/2) 4:34 PM CST (12/2)
Length of Visible Light 10h 19m
Length of Day
9h 16m
Waning Crescent, 0% of the Moon is Illuminated
Dec 2
Waning Crescent
Dec 2
New
Dec 9
First Quarter
Dec 17
Full
Dec 25
Last Quarter

Hourly Weather History & Observations

Time (CST) Temp. Windchill Dew Point Humidity Pressure Visibility Wind Dir Wind Speed Gust Speed Precip Events Conditions
12:53 AM 30.0 °F 24.1 °F 25.0 °F 82% 29.96 in 8.0 mi SSE 5.8 mph - N/A   Clear
1:53 AM 28.0 °F 22.8 °F 25.0 °F 88% 29.94 in 7.0 mi SSE 4.6 mph - N/A   Clear
2:53 AM 28.9 °F 22.8 °F 25.0 °F 85% 29.93 in 7.0 mi SE 5.8 mph - N/A   Clear
3:53 AM 30.0 °F 26.5 °F 26.1 °F 85% 29.92 in 6.0 mi ESE 3.5 mph - N/A   Mostly Cloudy
4:53 AM 30.0 °F 24.1 °F 27.0 °F 88% 29.90 in 5.0 mi ESE 5.8 mph - N/A   Mostly Cloudy
5:53 AM 30.0 °F 24.1 °F 28.0 °F 92% 29.88 in 4.0 mi SSE 5.8 mph - N/A   Mostly Cloudy
6:53 AM 30.0 °F 26.5 °F 28.9 °F 96% 29.89 in 4.0 mi SE 3.5 mph - N/A   Overcast
7:35 AM 30.2 °F 23.4 °F 28.4 °F 93% 29.85 in 2.5 mi SE 6.9 mph - N/A   Mostly Cloudy
7:53 AM 30.9 °F 26.2 °F 28.9 °F 92% 29.89 in 2.5 mi SE 4.6 mph - N/A   Overcast
8:53 AM 30.9 °F 23.5 °F 30.0 °F 96% 29.87 in 2.5 mi ESE 8.1 mph - N/A   Mostly Cloudy
9:53 AM 33.1 °F 24.9 °F 30.9 °F 92% 29.86 in 2.5 mi SE 10.4 mph - N/A   Overcast
10:53 AM 34.0 °F 25.0 °F 30.9 °F 89% 29.83 in 2.5 mi SE 12.7 mph - N/A   Overcast
11:00 AM 33.8 °F 25.8 °F 30.2 °F 87% 29.80 in 4.0 mi SE 10.4 mph - N/A   Overcast
11:53 AM 36.0 °F 28.5 °F 32.0 °F 86% 29.81 in 4.0 mi SE 10.4 mph - N/A   Overcast
12:53 PM 37.0 °F 29.8 °F 32.0 °F 82% 29.79 in 5.0 mi SE 10.4 mph - N/A   Haze
1:53 PM 37.0 °F 29.8 °F 32.0 °F 82% 29.77 in 5.0 mi SE 10.4 mph - N/A   Haze
2:53 PM 37.0 °F 29.3 °F 30.9 °F 79% 29.74 in 7.0 mi ESE 11.5 mph - N/A   Overcast
3:53 PM 36.0 °F 28.5 °F 30.9 °F 82% 29.73 in 6.0 mi SE 10.4 mph - 0.00 in   Haze
4:25 PM 33.8 °F 26.4 °F 32.0 °F 93% 29.69 in 3.0 mi ESE 9.2 mph - 0.03 in   Overcast
4:53 PM 34.0 °F 25.0 °F 32.0 °F 92% 29.71 in 3.0 mi ESE 12.7 mph - 0.03 in   Overcast
5:53 PM 35.1 °F 25.9 °F 33.1 °F 92% 29.70 in 5.0 mi SE 13.8 mph 20.7 mph N/A   Overcast
6:53 PM 35.1 °F 25.9 °F 33.1 °F 92% 29.71 in 5.0 mi ESE 13.8 mph - N/A   Overcast
7:27 PM 35.6 °F 27.1 °F 33.8 °F 93% 29.68 in 6.0 mi SE 12.7 mph - N/A   Overcast
7:53 PM 35.1 °F 25.9 °F 33.1 °F 92% 29.71 in 6.0 mi SE 13.8 mph - N/A   Overcast
8:50 PM 35.6 °F 25.5 °F 33.8 °F 93% 29.67 in 6.0 mi SSE 17.3 mph - N/A   Overcast
8:53 PM 35.1 °F 25.9 °F 33.1 °F 92% 29.71 in 6.0 mi SSE 13.8 mph - N/A   Overcast
9:45 PM 35.6 °F 26.6 °F 33.8 °F 93% 29.68 in 5.0 mi SE 13.8 mph 21.9 mph N/A   Overcast
9:53 PM 35.1 °F 26.4 °F 33.1 °F 92% 29.71 in 5.0 mi SE 12.7 mph - N/A   Overcast
10:53 PM 35.1 °F 25.5 °F 34.0 °F 96% 29.70 in 4.0 mi SE 15.0 mph 20.7 mph N/A   Overcast
11:34 PM 35.6 °F 27.5 °F 33.8 °F 93% 29.66 in 2.5 mi SE 11.5 mph - N/A   Overcast
11:50 PM 35.6 °F 28.0 °F 33.8 °F 93% 29.66 in 3.0 mi SE 10.4 mph - N/A   Overcast
11:53 PM 35.1 °F 27.9 °F 34.0 °F 96% 29.69 in 3.0 mi ESE 9.2 mph - N/A   Overcast